Starlink 4088

operational
NORAD ID: 53155 Int'l Des: 2022-083 Owner: SPXS Country: US Constellation: starlink
LEOCIRCULAR

Über Starlink 4088

Beschreibung wird geladen...

Live-Position

3D-Globus wird geladen...

Nächste Überflüge

Höhenverlauf

Altitude vs Time

uPlot chart will show altitude changes over time

Zweizeiliger Elementsatz

1 53155U 22083Z 26095.15322178 -.00000783 00000-0 -31090-4 0 9992
2 53155 53.2176 45.3196 0001623 100.7427 259.3748 15.08838128205993
Epoch: 5. Apr. 2026 • Age: 13 hours

Aktueller Status

Höhe 540.7 km
Geschwindigkeit 7.60 km/s
Subsatellitenpunkt 28.04°N, 16.05°W
Startdatum 17. Juli 2022
Alter 3.7 years
Typ internet

Technische Details

Klassifizierung Payload
Masse 297.00 kg
Trockenmasse 275.00 kg
Gesamtmasse 297.00 kg
Länge 0.20 m
Durchmesser 2.80 m
Spannweite 9.00 m
Form Box + pan
Hersteller SPXS
Bus-Typ Starlink
Phasenstatus In Orbit
Besitzer/Staat SPXS/US

Große Konstellationen

Loading constellations...